Weather in Ariadnoye

Russia / Primorsky Krai     45°08′26″N   134°23′05″E
temp.,
°C
wind,
m/s
gust,
m/s
humid.,
%
clouds,
%
prec.,
mm/h
press.,
hPa
HPBL,
m
20 june, sun
sun2001:00+11ese2280100 0.0 100371
04:00+10e1199100 3.6 100453
07:00+10ese1797100 0.4 1004358
10:00+10e1298100 2.6 1004278
13:00+10ne1495100 1.9 1005370
16:00+11ese1391100 2.7 1005434
19:00+14ese1577100 0.2 1005585
22:00+9se118794 0.2 100610
21 june, mon
mon2101:00+9ese1183100 0.1 100711
04:00+8ene1195100 0.7 100712
07:00+9ene0194100 0.0 100826
10:00+14n126682 0.0 1008686
13:00+19ne234096 0.0 10071809
16:00+18n3551100 0.0 1007790
19:00+19e125999 0.0 1007111
22:00+12sse227779 0.0 101025
22 june, tue
tue2201:00+9sse21945 0.0 101116
04:00+8se11950 0.0 101212
07:00+12se11790 0.0 101277
10:00+20nnw22461 0.0 1011911
13:00+24nw243323 0.0 10102153
16:00+25nnw3430100 0.0 10092496
19:00+22n355116 0.0 1009409
22:00+14ene11902 0.0 101210
23 june, wed
wed2301:00+12sse21914 0.0 101212
04:00+11se21810 0.0 101213
07:00+14sse11705 0.0 101264
10:00+22nw224999 0.0 1012721
13:00+26nnw22345 0.0 10101655
16:00+27nnw22295 0.0 10092539
19:00+23nw36471 0.0 1009460
22:00+15se11799 0.0 101011
24 june, thu
thu2401:00+14se218199 0.0 101013
04:00+12sse2284100 0.0 101016
07:00+15sse1275100 0.0 101060
10:00+21nnw2355100 0.0 1010513
13:00+21e1161100 0.1 1010349
16:00+24nw114866 0.1 1009840
19:00+24sw12601 0.0 1008497
22:00+16nne118930 0.4 101011